Webb City, MO

8:15 PM CST on February 11, 2016 (GMT -0600)
Joplin Regional

Weather History for KJLN - January, 2014

Change the Weather History Date:

Tuesday, January 7, 2014

  Actual Average Record
Temperature  
Mean Temperature 18 °F 35 °F  
Max Temperature 38 °F 44 °F 73 °F (1965)
Min Temperature -3 °F 25 °F -6 °F (1968)
Degree Days  
Heating Degree Days 47 30  
Month to date heating degree days 316 210  
Since 1 July heating degree days 2186 1827  
Cooling Degree Days 0 0  
Month to date cooling degree days 0 0  
Year to date cooling degree days 0 0  
Moisture  
Dew Point 8 °F    
Average Humidity 53    
Maximum Humidity 65    
Minimum Humidity 40    
Precipitation  
Precipitation 0.00 in 0.07 in 0.52 in (1998)
Month to date precipitation 0.26 0.50  
Year to date precipitation 0.26 0.50  
Sea Level Pressure  
Sea Level Pressure 30.32 in    
Wind  
Wind Speed 13 mph (SSW)    
Max Wind Speed 25 mph    
Max Gust Speed 32 mph    
Visibility 10 miles    
Events      
T = Trace of Precipitation, MM = Missing Value Source: NWS Daily Summary

Daily Weather History Graph

Daily Weather History Graph

Search for Another Location

Airport or City:

Trip Planner

Search our weather history database for the weather conditions in past years. The results will help you decide how hot, cold, wet, or windy it might be!

Date:

Astronomy

Jan. 07, 2014 Rise Set
Actual Time 7:32 AM CST 5:16 PM CST
Civil Twilight 7:03 AM CST 5:45 PM CST
Nautical Twilight 6:30 AM CST 6:17 PM CST
Astronomical Twilight 5:59 AM CST 6:49 PM CST
Moon 11:31 AM CST (1/7) No Moon Set
Length of Visible Light 10h 42m
Length of Day
9h 44m
Waxing Crescent, 46% of the Moon is Illuminated
Jan 7
Waxing Crescent
Jan 7
First Quarter
Jan 15
Full
Jan 23
Last Quarter
Jan 30
New

Hourly Weather History & Observations

Time (CST) Temp. Windchill Dew Point Humidity Pressure Visibility Wind Dir Wind Speed Gust Speed Precip Events Conditions
12:53 AM -0.0 °F -14.2 °F -9.9 °F 63% 30.52 in 10.0 mi South 8.1 mph - N/A   Clear
1:53 AM -0.9 °F -16.4 °F -9.0 °F 69% 30.51 in 10.0 mi South 9.2 mph - N/A   Clear
2:53 AM 3.0 °F -13.3 °F -8.0 °F 60% 30.48 in 10.0 mi South 11.5 mph - N/A   Clear
3:53 AM 3.9 °F -10.4 °F -8.0 °F 58% 30.46 in 10.0 mi South 9.2 mph - N/A   Clear
4:53 AM 5.0 °F -10.0 °F -7.1 °F 58% 30.43 in 10.0 mi South 10.4 mph - N/A   Clear
5:53 AM 7.0 °F -8.3 °F -6.0 °F 55% 30.40 in 10.0 mi South 11.5 mph - N/A   Clear
6:53 AM 10.0 °F -4.5 °F -2.0 °F 58% 30.39 in 10.0 mi South 11.5 mph - N/A   Clear
7:53 AM 14.0 °F -0.2 °F 1.0 °F 56% 30.38 in 10.0 mi South 12.7 mph - N/A   Clear
8:53 AM 19.9 °F 5.7 °F 5.0 °F 52% 30.37 in 10.0 mi SSW 16.1 mph - N/A   Clear
9:53 AM 23.0 °F 9.6 °F 7.0 °F 50% 30.37 in 10.0 mi SSW 16.1 mph 24.2 mph N/A   Clear
10:53 AM 27.0 °F 13.9 °F 10.0 °F 49% 30.35 in 10.0 mi SSW 18.4 mph - N/A   Clear
11:53 AM 30.9 °F 19.1 °F 12.9 °F 47% 30.28 in 10.0 mi SSW 18.4 mph 23.0 mph N/A   Clear
12:53 PM 34.0 °F 23.0 °F 14.0 °F 44% 30.23 in 10.0 mi SSW 18.4 mph 25.3 mph N/A   Clear
1:53 PM 37.0 °F 26.4 °F 15.1 °F 41% 30.21 in 10.0 mi SSW 20.7 mph 26.5 mph N/A   Clear
2:53 PM 37.9 °F 29.2 °F 16.0 °F 41% 30.21 in 10.0 mi SSW 15.0 mph 24.2 mph N/A   Clear
3:53 PM 37.0 °F 27.4 °F 18.0 °F 46% 30.20 in 10.0 mi SSW 17.3 mph 31.1 mph N/A   Clear
4:53 PM 36.0 °F 27.1 °F 18.0 °F 48% 30.21 in 10.0 mi SW 13.8 mph - N/A   Clear
5:53 PM 34.0 °F 28.8 °F 18.0 °F 52% 30.21 in 10.0 mi SSW 5.8 mph - N/A   Clear
6:53 PM 34.0 °F 25.5 °F 18.0 °F 52% 30.22 in 10.0 mi SSW 11.5 mph - N/A   Clear
7:53 PM 35.1 °F 25.9 °F 17.1 °F 48% 30.22 in 10.0 mi SSW 13.8 mph - N/A   Clear
8:53 PM 34.0 °F 24.6 °F 17.1 °F 50% 30.23 in 10.0 mi SSW 13.8 mph - N/A   Clear
9:53 PM 33.1 °F 24.4 °F 17.1 °F 52% 30.24 in 10.0 mi SSW 11.5 mph - N/A   Clear
10:53 PM 32.0 °F 23.6 °F 16.0 °F 52% 30.26 in 10.0 mi SSW 10.4 mph - N/A   Clear
11:53 PM 32.0 °F 23.0 °F 16.0 °F 52% 30.24 in 10.0 mi South 11.5 mph - N/A   Clear